| time (UTC) | temp F | wind direction | speed knots | gust knots | rain 1hr in | rain 24hr in | rain mn in | humidity % | barometer mb |
| 20260508030509 | 63 | 65 | 0.0 | 0.0 | 0.00 | 0.00 | 0.00 | 89 | 1016.0 |
| 20260508030011 | 63 | 65 | 0.0 | 0.0 | 0.00 | 0.00 | 0.00 | 88 | 1016.0 |
| 20260508025507 | 63 | 65 | 0.0 | 0.0 | 0.00 | 0.00 | 0.00 | 88 | 1015.7 |
| 20260508025009 | 63 | 65 | 0.0 | 0.0 | 0.00 | 0.00 | 0.00 | 88 | 1015.3 |
| 20260508024509 | 63 | 65 | 0.0 | 0.0 | 0.00 | 0.00 | 0.00 | 88 | 1015.5 |
| 20260508024009 | 63 | 65 | 0.0 | 0.0 | 0.00 | 0.00 | 0.00 | 88 | 1014.6 |
| 20260508023010 | 63 | 74 | 0.0 | 0.0 | 0.00 | 0.00 | 0.00 | 89 | 1014.7 |
| 20260508022508 | 64 | 74 | 0.0 | 0.0 | 0.00 | 0.00 | 0.00 | 88 | 1014.7 |
| 20260508022010 | 64 | 74 | 0.0 | 0.0 | 0.00 | 0.00 | 0.00 | 88 | 1015.1 |
| 20260508021508 | 64 | 76 | 0.0 | 0.0 | 0.00 | 0.00 | 0.00 | 88 | 1014.7 |
| 20260508020507 | 64 | 76 | 0.0 | 0.0 | 0.00 | 0.00 | 0.00 | 88 | 1015.1 |
| 20260508015507 | 64 | 86 | 0.0 | 0.0 | 0.00 | 0.00 | 0.00 | 88 | 1014.9 |
| 20260508015009 | 64 | 86 | 0.0 | 0.0 | 0.00 | 0.00 | 0.00 | 87 | 1015.0 |
| 20260508014009 | 65 | 86 | 0.0 | 0.0 | 0.00 | 0.00 | 0.00 | 87 | 1015.2 |
| 20260508013508 | 65 | 86 | 0.0 | 0.0 | 0.00 | 0.00 | 0.00 | 87 | 1015.3 |
| 20260508013009 | 65 | 86 | 0.0 | 0.0 | 0.00 | 0.00 | 0.00 | 87 | 1015.4 |
| 20260508012508 | 65 | 86 | 0.0 | 0.0 | 0.00 | 0.00 | 0.00 | 86 | 1015.1 |
| 20260508012009 | 65 | 86 | 0.0 | 0.0 | 0.00 | 0.00 | 0.00 | 86 | 1014.7 |
| 20260508011508 | 65 | 86 | 0.0 | 0.0 | 0.00 | 0.00 | 0.00 | 86 | 1014.7 |
| 20260508011009 | 65 | 86 | 0.0 | 0.0 | 0.00 | 0.00 | 0.00 | 85 | 1015.0 |
| 20260508010508 | 66 | 86 | 0.0 | 0.0 | 0.00 | 0.00 | 0.00 | 85 | 1015.4 |
| 20260508010011 | 66 | 86 | 0.0 | 0.0 | 0.00 | 0.00 | 0.00 | 85 | 1015.3 |
| 20260508005507 | 66 | 86 | 0.0 | 0.0 | 0.00 | 0.00 | 0.00 | 85 | 1015.0 |
| 20260508005009 | 66 | 86 | 0.0 | 0.0 | 0.00 | 0.00 | 0.00 | 85 | 1014.8 |
| 20260508004508 | 66 | 86 | 0.0 | 0.0 | 0.00 | 0.00 | 0.00 | 84 | 1014.9 |
| 20260508004008 | 66 | 86 | 0.0 | 0.0 | 0.00 | 0.00 | 0.00 | 83 | 1014.6 |
| 20260508003507 | 67 | 86 | 0.0 | 0.0 | 0.00 | 0.00 | 0.00 | 83 | 1014.4 |
| 20260508003010 | 67 | 86 | 0.0 | 0.0 | 0.00 | 0.00 | 0.00 | 82 | 1014.8 |
| 20260508002507 | 67 | 86 | 0.0 | 0.0 | 0.00 | 0.00 | 0.00 | 82 | 1014.8 |
| 20260508002009 | 67 | 86 | 0.0 | 0.0 | 0.00 | 0.00 | 0.00 | 82 | 1014.8 |
| 20260508001509 | 67 | 86 | 0.0 | 0.0 | 0.00 | 0.00 | 0.00 | 81 | 1014.9 |
| 20260508001009 | 67 | 86 | 0.0 | 0.0 | 0.00 | 0.00 | 0.00 | 81 | 1014.8 |
| 20260508000508 | 68 | 86 | 0.0 | 0.0 | 0.00 | 0.00 | 0.00 | 80 | 1014.9 |
| 20260508000011 | 68 | 86 | 0.0 | 0.0 | 0.00 | 0.00 | 0.00 | 80 | 1014.8 |
| 20260507235508 | 68 | 86 | 0.0 | 0.0 | 0.00 | 0.00 | 0.00 | 79 | 1014.8 |
| 20260507235009 | 68 | 86 | 0.0 | 0.0 | 0.00 | 0.00 | 0.00 | 80 | 1014.9 |
| 20260507234508 | 68 | 86 | 0.0 | 0.9 | 0.00 | 0.00 | 0.00 | 79 | 1014.9 |
| 20260507234010 | 68 | 86 | 0.0 | 0.9 | 0.00 | 0.00 | 0.00 | 78 | 1014.8 |
| 20260507233507 | 69 | 86 | 0.0 | 0.0 | 0.00 | 0.00 | 0.00 | 79 | 1015.3 |
| 20260507233010 | 69 | 86 | 0.0 | 0.0 | 0.00 | 0.00 | 0.00 | 79 | 1015.8 |
| 20260507232508 | 69 | 86 | 0.0 | 0.0 | 0.00 | 0.00 | 0.00 | 80 | 1015.8 |
| 20260507232009 | 69 | 86 | 0.0 | 3.5 | 0.00 | 0.00 | 0.00 | 79 | 1015.8 |
| 20260507231508 | 69 | 86 | 0.0 | 3.5 | 0.00 | 0.00 | 0.00 | 79 | 1015.0 |
| 20260507231009 | 69 | 134 | 0.9 | 1.7 | 0.00 | 0.00 | 0.00 | 78 | 1014.6 |
| 20260507230508 | 69 | 47 | 0.0 | 1.7 | 0.00 | 0.00 | 0.00 | 78 | 1014.6 |
| 20260507230010 | 69 | 347 | 0.0 | 0.9 | 0.00 | 0.00 | 0.00 | 79 | 1015.3 |
| 20260507225008 | 69 | 347 | 0.0 | 0.9 | 0.00 | 0.00 | 0.00 | 78 | 1015.0 |
| 20260507224507 | 69 | 347 | 0.0 | 3.5 | 0.00 | 0.00 | 0.00 | 77 | 1014.9 |
| 20260507224008 | 69 | 58 | 0.0 | 0.9 | 0.00 | 0.00 | 0.00 | 77 | 1014.9 |
| 20260507223506 | 69 | 58 | 0.0 | 0.9 | 0.00 | 0.00 | 0.00 | 77 | 1015.1 |
| 20260507223008 | 69 | 63 | 0.0 | 1.7 | 0.00 | 0.00 | 0.00 | 77 | 1015.1 |
| 20260507222506 | 69 | 63 | 0.0 | 1.7 | 0.00 | 0.00 | 0.00 | 76 | 1015.2 |
| 20260507222008 | 69 | 34 | 0.0 | 1.7 | 0.00 | 0.00 | 0.00 | 76 | 1014.9 |
| 20260507221508 | 70 | 34 | 0.0 | 1.7 | 0.00 | 0.00 | 0.00 | 77 | 1015.2 |
| 20260507221007 | 69 | 36 | 0.0 | 0.0 | 0.00 | 0.00 | 0.00 | 77 | 1015.0 |
| 20260507220507 | 70 | 40 | 0.0 | 1.7 | 0.00 | 0.00 | 0.00 | 76 | 1015.1 |
| 20260507220009 | 69 | 112 | 0.0 | 1.7 | 0.00 | 0.00 | 0.00 | 76 | 1015.0 |
| 20260507215507 | 69 | 111 | 0.9 | 1.7 | 0.00 | 0.00 | 0.00 | 77 | 1015.0 |
| 20260507215007 | 69 | 124 | 0.9 | 2.6 | 0.00 | 0.00 | 0.00 | 77 | 1014.9 |
| 20260507214508 | 69 | 123 | 0.0 | 2.6 | 0.00 | 0.00 | 0.00 | 78 | 1014.9 |
| 20260507214009 | 69 | 139 | 0.0 | 0.0 | 0.00 | 0.00 | 0.00 | 77 | 1015.0 |
| 20260507213506 | 69 | 29 | 0.0 | 0.0 | 0.00 | 0.00 | 0.00 | 77 | 1015.2 |
| 20260507213009 | 69 | 32 | 0.0 | 0.0 | 0.00 | 0.00 | 0.00 | 78 | 1015.2 |
| 20260507212508 | 69 | 34 | 0.0 | 0.0 | 0.00 | 0.00 | 0.00 | 77 | 1015.2 |
| 20260507212007 | 69 | 35 | 0.0 | 0.0 | 0.00 | 0.00 | 0.00 | 77 | 1015.5 |
| 20260507211507 | 69 | 35 | 0.0 | 0.0 | 0.00 | 0.00 | 0.00 | 76 | 1015.5 |
| 20260507210010 | 69 | 35 | 0.0 | 0.0 | 0.00 | 0.00 | 0.00 | 75 | 1015.7 |
| 20260507205508 | 69 | 36 | 0.0 | 0.0 | 0.00 | 0.00 | 0.00 | 77 | 1015.7 |
| 20260507205009 | 69 | 36 | 0.0 | 0.0 | 0.00 | 0.00 | 0.00 | 76 | 1015.7 |
| 20260507204509 | 69 | 48 | 0.0 | 0.0 | 0.00 | 0.00 | 0.00 | 75 | 1015.8 |
| 20260507204010 | 68 | 48 | 0.0 | 0.0 | 0.00 | 0.00 | 0.00 | 76 | 1016.1 |
| 20260507203507 | 68 | 104 | 0.0 | 0.0 | 0.00 | 0.00 | 0.00 | 75 | 1016.0 |
| 20260507203011 | 69 | 105 | 0.0 | 0.0 | 0.00 | 0.00 | 0.00 | 75 | 1016.0 |
| 20260507202508 | 69 | 104 | 0.0 | 0.0 | 0.00 | 0.00 | 0.00 | 74 | 1016.1 |
| 20260507201510 | 69 | 123 | 0.0 | 0.0 | 0.00 | 0.00 | 0.00 | 74 | 1016.2 |
| 20260507201009 | 69 | 125 | 0.0 | 0.0 | 0.00 | 0.00 | 0.00 | 74 | 1016.1 |
| 20260507200011 | 69 | 115 | 0.9 | 1.7 | 0.00 | 0.00 | 0.00 | 73 | 1016.3 |
| 20260507195507 | 69 | 5 | 0.0 | 1.7 | 0.00 | 0.00 | 0.00 | 74 | 1016.1 |
| 20260507194507 | 69 | 120 | 0.0 | 3.5 | 0.00 | 0.00 | 0.00 | 75 | 1016.2 |
| 20260507194009 | 68 | 111 | 0.0 | 1.7 | 0.00 | 0.00 | 0.00 | 75 | 1016.3 |
| 20260507193506 | 68 | 110 | 0.0 | 1.7 | 0.00 | 0.00 | 0.00 | 74 | 1016.3 |
| 20260507193009 | 68 | 66 | 0.0 | 1.7 | 0.00 | 0.00 | 0.00 | 74 | 1016.3 |
| 20260507192507 | 68 | 67 | 0.9 | 1.7 | 0.00 | 0.00 | 0.00 | 73 | 1016.4 |
| 20260507191506 | 69 | 67 | 0.9 | 2.6 | 0.00 | 0.00 | 0.00 | 74 | 1016.3 |
| 20260507191007 | 69 | 51 | 0.9 | 2.6 | 0.00 | 0.00 | 0.00 | 74 | 1016.3 |
| 20260507190507 | 69 | 118 | 0.9 | 3.5 | 0.00 | 0.00 | 0.00 | 73 | 1016.2 |
| 20260507185508 | 69 | 74 | 0.9 | 2.6 | 0.00 | 0.00 | 0.00 | 74 | 1016.3 |
| 20260507185010 | 69 | 67 | 0.9 | 3.5 | 0.00 | 0.00 | 0.00 | 74 | 1016.1 |
| 20260507184511 | 69 | 125 | 0.9 | 3.5 | 0.00 | 0.00 | 0.00 | 74 | 1016.4 |
| 20260507184010 | 68 | 284 | 0.9 | 2.6 | 0.00 | 0.00 | 0.00 | 76 | 1016.5 |
| 20260507183509 | 68 | 325 | 0.9 | 3.5 | 0.00 | 0.00 | 0.00 | 76 | 1016.6 |
| 20260507183014 | 67 | 308 | 1.7 | 3.5 | 0.00 | 0.00 | 0.00 | 78 | 1016.6 |
| 20260507182509 | 66 | 31 | 0.9 | 3.5 | 0.00 | 0.00 | 0.00 | 79 | 1016.5 |
| 20260507182010 | 65 | 251 | 0.9 | 3.5 | 0.00 | 0.00 | 0.00 | 79 | 1016.5 |
| 20260507181510 | 64 | 323 | 0.0 | 0.0 | 0.00 | 0.00 | 0.00 | 80 | 1016.7 |
| 20260507181010 | 64 | 202 | 0.9 | 2.6 | 0.00 | 0.00 | 0.00 | 81 | 1017.0 |
| 20260507180508 | 63 | 199 | 0.9 | 3.5 | 0.00 | 0.00 | 0.00 | 81 | 1016.8 |
| 20260507180011 | 63 | 24 | 0.9 | 3.5 | 0.00 | 0.00 | 0.00 | 81 | 1016.9 |
| 20260507175506 | 63 | 19 | 0.9 | 2.6 | 0.00 | 0.00 | 0.00 | 82 | 1017.1 |
| 20260507175007 | 63 | 19 | 0.9 | 2.6 | 0.00 | 0.00 | 0.00 | 81 | 1017.0 |
| 20260507174510 | 63 | 70 | 0.9 | 2.6 | 0.00 | 0.00 | 0.00 | 82 | 1016.8 |
| 20260507174010 | 62 | 334 | 0.0 | 1.7 | 0.00 | 0.00 | 0.00 | 83 | 1017.0 |
| 20260507173508 | 62 | 148 | 0.9 | 2.6 | 0.00 | 0.00 | 0.00 | 83 | 1016.9 |
| 20260507173010 | 62 | 31 | 0.9 | 2.6 | 0.00 | 0.00 | 0.00 | 83 | 1016.8 |
| 20260507172506 | 62 | 44 | 0.0 | 3.5 | 0.00 | 0.00 | 0.00 | 83 | 1017.1 |
| 20260507172008 | 62 | 279 | 0.0 | 3.5 | 0.00 | 0.00 | 0.00 | 83 | 1017.2 |
| 20260507171508 | 62 | 5 | 0.0 | 0.0 | 0.00 | 0.00 | 0.00 | 84 | 1017.3 |
| 20260507171008 | 61 | 355 | 0.0 | 0.0 | 0.00 | 0.00 | 0.00 | 84 | 1017.6 |
| 20260507165506 | 60 | 61 | 0.0 | 0.0 | 0.00 | 0.00 | 0.00 | 84 | 1017.8 |
| 20260507164508 | 60 | 75 | 0.0 | 0.0 | 0.00 | 0.00 | 0.00 | 84 | 1017.8 |
| 20260507163507 | 61 | 24 | 0.0 | 0.0 | 0.00 | 0.00 | 0.00 | 84 | 1017.6 |
| 20260507163008 | 61 | 68 | 0.0 | 0.0 | 0.00 | 0.00 | 0.00 | 84 | 1017.6 |
| 20260507162507 | 61 | 15 | 0.0 | 1.7 | 0.00 | 0.00 | 0.00 | 85 | 1017.6 |
| 20260507162009 | 60 | 32 | 0.9 | 1.7 | 0.00 | 0.00 | 0.00 | 85 | 1017.7 |
| 20260507161509 | 60 | 121 | 0.9 | 1.7 | 0.00 | 0.00 | 0.00 | 85 | 1017.8 |
| 20260507161009 | 60 | 5 | 0.9 | 1.7 | 0.00 | 0.00 | 0.00 | 85 | 1017.9 |
| 20260507160508 | 60 | 5 | 0.9 | 2.6 | 0.00 | 0.00 | 0.00 | 85 | 1017.8 |
| 20260507160009 | 60 | 10 | 0.9 | 2.6 | 0.00 | 0.00 | 0.00 | 85 | 1017.9 |
| 20260507155508 | 60 | 355 | 0.9 | 2.6 | 0.00 | 0.00 | 0.00 | 85 | 1017.6 |
| 20260507155008 | 59 | 5 | 0.9 | 2.6 | 0.00 | 0.00 | 0.00 | 86 | 1017.6 |
| 20260507154509 | 59 | 24 | 0.9 | 1.7 | 0.00 | 0.00 | 0.00 | 86 | 1017.4 |
| 20260507154010 | 59 | 5 | 0.0 | 1.7 | 0.00 | 0.00 | 0.00 | 86 | 1017.7 |
| 20260507153009 | 59 | 34 | 0.0 | 1.7 | 0.00 | 0.00 | 0.00 | 86 | 1017.8 |
| 20260507152507 | 59 | 72 | 0.0 | 0.0 | 0.00 | 0.00 | 0.00 | 87 | 1017.7 |
| 20260507151507 | 58 | 19 | 0.9 | 3.5 | 0.00 | 0.00 | 0.00 | 86 | 1017.6 |
| 20260507151007 | 59 | 22 | 0.9 | 3.5 | 0.00 | 0.00 | 0.00 | 86 | 1017.8 |
| 20260507150507 | 59 | 14 | 0.9 | 2.6 | 0.00 | 0.00 | 0.00 | 86 | 1017.6 |
| 20260507150009 | 59 | 5 | 0.9 | 2.6 | 0.00 | 0.00 | 0.00 | 86 | 1017.8 |
| 20260507145509 | 59 | 28 | 0.0 | 2.6 | 0.00 | 0.00 | 0.00 | 87 | 1018.1 |
| 20260507145008 | 59 | 29 | 0.0 | 2.6 | 0.00 | 0.00 | 0.00 | 87 | 1017.8 |
| 20260507144007 | 59 | 28 | 0.0 | 0.0 | 0.00 | 0.00 | 0.00 | 87 | 1017.7 |
| 20260507143509 | 59 | 15 | 0.0 | 0.0 | 0.00 | 0.00 | 0.00 | 87 | 1017.3 |
| 20260507143009 | 58 | 17 | 0.9 | 2.6 | 0.00 | 0.00 | 0.00 | 87 | 1017.3 |
| 20260507142008 | 58 | 348 | 0.9 | 2.6 | 0.00 | 0.00 | 0.00 | 88 | 1017.1 |
| 20260507141508 | 58 | 24 | 0.9 | 2.6 | 0.00 | 0.00 | 0.00 | 87 | 1017.1 |
| 20260507141007 | 58 | 32 | 0.0 | 2.6 | 0.00 | 0.00 | 0.00 | 87 | 1017.2 |
| 20260507140507 | 58 | 9 | 0.9 | 1.7 | 0.00 | 0.00 | 0.00 | 87 | 1017.4 |
| 20260507140010 | 58 | 350 | 0.9 | 2.6 | 0.00 | 0.00 | 0.00 | 88 | 1017.4 |
| 20260507134507 | 58 | 16 | 0.9 | 2.6 | 0.00 | 0.00 | 0.00 | 88 | 1017.3 |
| 20260507134009 | 58 | 30 | 0.9 | 2.6 | 0.00 | 0.00 | 0.00 | 89 | 1017.3 |
| 20260507133507 | 57 | 40 | 0.0 | 1.7 | 0.00 | 0.00 | 0.00 | 89 | 1017.1 |
| 20260507133010 | 57 | 338 | 0.0 | 0.0 | 0.00 | 0.00 | 0.00 | 89 | 1017.1 |
| 20260507132508 | 57 | 338 | 0.0 | 0.0 | 0.00 | 0.00 | 0.00 | 89 | 1017.1 |
| 20260507132009 | 57 | 304 | 0.0 | 0.0 | 0.00 | 0.00 | 0.00 | 89 | 1017.3 |
| 20260507131508 | 57 | 11 | 0.0 | 0.0 | 0.00 | 0.00 | 0.00 | 89 | 1016.9 |
| 20260507130507 | 57 | 34 | 0.0 | 1.7 | 0.00 | 0.00 | 0.00 | 89 | 1017.0 |
| 20260507130012 | 56 | 26 | 0.0 | 0.0 | 0.00 | 0.00 | 0.00 | 89 | 1016.8 |
| 20260507125008 | 56 | 49 | 0.0 | 0.0 | 0.00 | 0.00 | 0.00 | 90 | 1016.7 |
| 20260507124509 | 56 | 54 | 0.0 | 0.0 | 0.00 | 0.00 | 0.00 | 90 | 1016.8 |
| 20260507124009 | 56 | 70 | 0.0 | 0.0 | 0.00 | 0.00 | 0.00 | 90 | 1016.7 |
| 20260507123508 | 56 | 82 | 0.0 | 0.0 | 0.00 | 0.00 | 0.00 | 90 | 1016.5 |
| 20260507123010 | 56 | 86 | 0.0 | 0.0 | 0.00 | 0.00 | 0.00 | 90 | 1016.6 |
| 20260507122506 | 56 | 86 | 0.0 | 0.0 | 0.00 | 0.00 | 0.00 | 90 | 1016.6 |
| 20260507122008 | 56 | 63 | 0.0 | 0.0 | 0.00 | 0.00 | 0.00 | 90 | 1016.5 |
| 20260507121509 | 56 | 40 | 0.0 | 0.0 | 0.00 | 0.00 | 0.00 | 90 | 1016.3 |
| 20260507121008 | 56 | 40 | 0.0 | 0.0 | 0.00 | 0.00 | 0.00 | 90 | 1016.1 |
| 20260507120507 | 56 | 40 | 0.0 | 0.0 | 0.00 | 0.00 | 0.00 | 91 | 1016.2 |
| 20260507120011 | 56 | 40 | 0.0 | 0.0 | 0.00 | 0.00 | 0.00 | 91 | 1016.0 |
| 20260507115506 | 56 | 40 | 0.0 | 0.0 | 0.00 | 0.00 | 0.00 | 91 | 1015.9 |
| 20260507114507 | 56 | 30 | 0.0 | 0.0 | 0.00 | 0.00 | 0.00 | 91 | 1015.8 |
| 20260507114009 | 56 | 32 | 0.0 | 0.0 | 0.00 | 0.00 | 0.00 | 91 | 1015.8 |
| 20260507113008 | 56 | 40 | 0.0 | 0.0 | 0.00 | 0.00 | 0.00 | 91 | 1015.7 |
| 20260507112506 | 56 | 46 | 0.0 | 0.0 | 0.00 | 0.00 | 0.00 | 91 | 1015.6 |
| 20260507112007 | 56 | 69 | 0.0 | 0.0 | 0.00 | 0.00 | 0.00 | 91 | 1015.3 |
| 20260507111507 | 56 | 69 | 0.0 | 0.0 | 0.00 | 0.00 | 0.00 | 91 | 1015.5 |
| 20260507111009 | 56 | 69 | 0.0 | 0.0 | 0.00 | 0.00 | 0.00 | 91 | 1015.8 |
| 20260507110506 | 56 | 74 | 0.0 | 0.0 | 0.00 | 0.00 | 0.00 | 91 | 1015.7 |
| 20260507110010 | 56 | 75 | 0.0 | 0.0 | 0.00 | 0.00 | 0.00 | 91 | 1015.6 |
| 20260507105008 | 56 | 75 | 0.0 | 0.0 | 0.00 | 0.00 | 0.00 | 91 | 1015.5 |
| 20260507104507 | 56 | 74 | 0.0 | 0.0 | 0.00 | 0.00 | 0.00 | 91 | 1015.3 |
| 20260507104006 | 56 | 74 | 0.0 | 0.0 | 0.00 | 0.00 | 0.00 | 91 | 1015.4 |
| 20260507103507 | 56 | 328 | 0.0 | 0.0 | 0.00 | 0.00 | 0.00 | 91 | 1015.7 |
| 20260507103008 | 56 | 325 | 0.0 | 0.0 | 0.00 | 0.00 | 0.00 | 91 | 1015.6 |
| 20260507102506 | 56 | 259 | 0.0 | 0.0 | 0.00 | 0.00 | 0.00 | 91 | 1015.3 |
| 20260507102007 | 56 | 71 | 0.0 | 0.0 | 0.00 | 0.00 | 0.00 | 91 | 1015.0 |
| 20260507101507 | 56 | 71 | 0.0 | 0.0 | 0.00 | 0.00 | 0.00 | 91 | 1014.8 |
| 20260507101007 | 56 | 128 | 0.0 | 0.0 | 0.00 | 0.00 | 0.00 | 91 | 1015.1 |
| 20260507100508 | 56 | 128 | 0.0 | 0.0 | 0.00 | 0.00 | 0.00 | 91 | 1015.4 |
| 20260507100010 | 56 | 22 | 0.0 | 0.0 | 0.00 | 0.00 | 0.00 | 91 | 1015.5 |
| 20260507095505 | 56 | 24 | 0.0 | 0.0 | 0.00 | 0.00 | 0.00 | 91 | 1015.4 |
| 20260507095006 | 56 | 20 | 0.0 | 0.0 | 0.00 | 0.00 | 0.00 | 91 | 1015.2 |
| 20260507094508 | 56 | 292 | 0.0 | 0.0 | 0.00 | 0.00 | 0.00 | 91 | 1015.2 |
| 20260507094006 | 56 | 234 | 0.0 | 0.0 | 0.00 | 0.00 | 0.00 | 91 | 1015.1 |
| 20260507093506 | 56 | 355 | 0.0 | 0.0 | 0.00 | 0.00 | 0.00 | 91 | 1015.0 |
| 20260507093008 | 56 | 341 | 0.0 | 0.0 | 0.00 | 0.00 | 0.00 | 91 | 1014.9 |
| 20260507092506 | 56 | 348 | 0.0 | 0.0 | 0.00 | 0.00 | 0.00 | 91 | 1015.0 |
| 20260507092007 | 56 | 348 | 0.0 | 0.0 | 0.00 | 0.00 | 0.00 | 91 | 1015.1 |
| 20260507091506 | 56 | 348 | 0.0 | 0.0 | 0.00 | 0.00 | 0.00 | 91 | 1015.3 |
| 20260507091007 | 56 | 234 | 0.0 | 0.0 | 0.00 | 0.00 | 0.00 | 91 | 1015.2 |
| 20260507090506 | 56 | 18 | 0.0 | 0.9 | 0.00 | 0.00 | 0.00 | 91 | 1015.0 |
| 20260507090009 | 57 | 18 | 0.9 | 1.7 | 0.00 | 0.00 | 0.00 | 91 | 1014.9 |
| 20260507085506 | 57 | 18 | 0.9 | 1.7 | 0.00 | 0.00 | 0.00 | 91 | 1015.0 |
| 20260507084506 | 57 | 18 | 0.9 | 2.6 | 0.00 | 0.00 | 0.00 | 91 | 1015.1 |
| 20260507084007 | 57 | 342 | 0.9 | 2.6 | 0.00 | 0.00 | 0.00 | 91 | 1015.2 |
| 20260507083505 | 57 | 21 | 0.0 | 1.7 | 0.00 | 0.00 | 0.00 | 91 | 1014.8 |
| 20260507083007 | 57 | 45 | 0.0 | 1.7 | 0.00 | 0.00 | 0.00 | 91 | 1015.0 |
| 20260507082507 | 57 | 93 | 0.0 | 0.0 | 0.00 | 0.00 | 0.00 | 91 | 1014.9 |
| 20260507082006 | 57 | 13 | 0.0 | 0.0 | 0.00 | 0.00 | 0.00 | 91 | 1015.1 |
| 20260507081506 | 57 | 5 | 0.0 | 0.0 | 0.00 | 0.00 | 0.00 | 91 | 1015.1 |
| 20260507081006 | 57 | 12 | 0.0 | 1.7 | 0.00 | 0.00 | 0.00 | 91 | 1015.0 |
| 20260507080506 | 57 | 12 | 0.9 | 3.5 | 0.00 | 0.00 | 0.00 | 91 | 1015.0 |
| 20260507080010 | 57 | 12 | 0.0 | 3.5 | 0.00 | 0.00 | 0.00 | 91 | 1014.7 |
| 20260507075507 | 57 | 34 | 0.0 | 0.0 | 0.00 | 0.00 | 0.00 | 91 | 1014.7 |
| 20260507074508 | 57 | 35 | 0.0 | 0.0 | 0.00 | 0.00 | 0.00 | 91 | 1014.8 |
| 20260507074008 | 57 | 17 | 0.0 | 0.0 | 0.00 | 0.00 | 0.00 | 91 | 1014.6 |
| 20260507073506 | 57 | 17 | 0.0 | 0.0 | 0.00 | 0.00 | 0.00 | 91 | 1014.4 |
| 20260507073008 | 57 | 18 | 0.9 | 2.6 | 0.00 | 0.00 | 0.00 | 91 | 1014.5 |
| 20260507071507 | 57 | 76 | 0.0 | 0.0 | 0.00 | 0.00 | 0.00 | 90 | 1014.9 |
| 20260507071008 | 57 | 78 | 0.0 | 0.0 | 0.00 | 0.00 | 0.00 | 90 | 1014.9 |
| 20260507070506 | 58 | 5 | 0.9 | 1.7 | 0.00 | 0.00 | 0.00 | 90 | 1015.2 |
| 20260507070013 | 58 | 5 | 0.9 | 2.6 | 0.00 | 0.00 | 0.00 | 90 | 1015.4 |
| 20260507065507 | 58 | 12 | 0.9 | 3.5 | 0.00 | 0.00 | 0.00 | 90 | 1015.2 |
| 20260507065006 | 58 | 18 | 0.0 | 3.5 | 0.00 | 0.00 | 0.00 | 90 | 1015.2 |
| 20260507064508 | 58 | 21 | 0.0 | 0.0 | 0.00 | 0.00 | 0.00 | 90 | 1015.1 |
| 20260507063009 | 58 | 26 | 0.0 | 0.0 | 0.00 | 0.00 | 0.00 | 90 | 1014.8 |
| 20260507061506 | 58 | 9 | 0.9 | 2.6 | 0.00 | 0.00 | 0.00 | 90 | 1014.9 |
| 20260507061007 | 58 | 5 | 0.9 | 2.6 | 0.00 | 0.00 | 0.00 | 90 | 1015.1 |
| 20260507060506 | 58 | 23 | 0.9 | 2.6 | 0.00 | 0.00 | 0.00 | 90 | 1015.2 |
| 20260507055508 | 59 | 284 | 0.9 | 2.6 | 0.00 | 0.00 | 0.00 | 90 | 1014.9 |
| 20260507055009 | 59 | 355 | 0.9 | 2.6 | 0.00 | 0.00 | 0.00 | 90 | 1014.7 |
| 20260507054509 | 59 | 22 | 1.7 | 2.6 | 0.00 | 0.00 | 0.00 | 90 | 1014.4 |
| 20260507054009 | 59 | 22 | 0.9 | 3.5 | 0.00 | 0.00 | 0.00 | 90 | 1014.6 |
| 20260507053509 | 59 | 5 | 0.0 | 3.5 | 0.00 | 0.00 | 0.00 | 90 | 1014.6 |
| 20260507053009 | 59 | 45 | 0.0 | 1.7 | 0.00 | 0.00 | 0.00 | 90 | 1014.5 |
| 20260507052507 | 59 | 21 | 0.9 | 2.6 | 0.00 | 0.00 | 0.00 | 90 | 1014.7 |
| 20260507052008 | 59 | 22 | 0.9 | 3.5 | 0.00 | 0.00 | 0.00 | 90 | 1014.7 |
| 20260507051010 | 59 | 167 | 0.9 | 3.5 | 0.00 | 0.00 | 0.00 | 90 | 1014.4 |
| 20260507050508 | 59 | 23 | 0.9 | 2.6 | 0.00 | 0.00 | 0.00 | 90 | 1014.3 |
| 20260507050015 | 59 | 40 | 0.9 | 2.6 | 0.00 | 0.00 | 0.00 | 90 | 1014.2 |
| 20260507045509 | 59 | 22 | 0.9 | 4.3 | 0.00 | 0.00 | 0.00 | 90 | 1014.1 |
| 20260507045009 | 59 | 286 | 0.9 | 4.3 | 0.00 | 0.00 | 0.00 | 90 | 1013.9 |
| 20260507044509 | 60 | 19 | 0.0 | 4.3 | 0.00 | 0.00 | 0.00 | 90 | 1013.7 |
| 20260507044009 | 60 | 22 | 0.9 | 2.6 | 0.00 | 0.00 | 0.00 | 90 | 1013.7 |
| 20260507042509 | 60 | 10 | 0.9 | 2.6 | 0.00 | 0.00 | 0.00 | 90 | 1013.8 |
| 20260507042010 | 61 | 13 | 0.9 | 3.5 | 0.00 | 0.00 | 0.00 | 90 | 1013.8 |
| 20260507041511 | 61 | 16 | 0.9 | 3.5 | 0.00 | 0.00 | 0.00 | 90 | 1013.8 |
| 20260507041009 | 61 | 17 | 0.9 | 2.6 | 0.00 | 0.00 | 0.00 | 90 | 1013.9 |
| 20260507040510 | 61 | 17 | 0.9 | 3.5 | 0.00 | 0.00 | 0.00 | 90 | 1013.9 |
| 20260507040011 | 61 | 17 | 0.9 | 3.5 | 0.00 | 0.00 | 0.00 | 90 | 1013.8 |
| 20260507035508 | 61 | 9 | 0.9 | 3.5 | 0.00 | 0.00 | 0.00 | 90 | 1013.8 |
| 20260507035008 | 61 | 19 | 1.7 | 3.5 | 0.00 | 0.00 | 0.00 | 90 | 1013.8 |
| 20260507034509 | 61 | 19 | 0.9 | 3.5 | 0.00 | 0.00 | 0.00 | 90 | 1013.7 |
| 20260507034009 | 61 | 30 | 0.0 | 2.6 | 0.00 | 0.00 | 0.00 | 90 | 1013.6 |
| 20260507033508 | 61 | 15 | 0.0 | 2.6 | 0.00 | 0.00 | 0.00 | 90 | 1013.5 |
| 20260507033011 | 61 | 15 | 0.0 | 2.6 | 0.00 | 0.00 | 0.00 | 90 | 1013.4 |
| 20260507032508 | 62 | 18 | 0.0 | 1.7 | 0.00 | 0.00 | 0.00 | 90 | 1013.4 |
| 20260507031508 | 62 | 18 | 0.9 | 3.5 | 0.00 | 0.00 | 0.00 | 90 | 1013.1 |